Weather History for KBEH - January, 2013

Change the Weather History Date:

Thursday, January 24, 2013

  Actual Average Record
Temperature  
Mean Temperature 13 °F -  
Max Temperature 17 °F 34 °F 64 °F (1967)
Min Temperature 9 °F 19 °F -7 °F (2014)
Degree Days  
Heating Degree Days 52    
Moisture  
Dew Point 7 °F    
Average Humidity 72    
Maximum Humidity 88    
Minimum Humidity 45    
Precipitation  
Precipitation 0.20 in - - ()
Sea Level Pressure  
Sea Level Pressure 30.42 in    
Wind  
Wind Speed 7 mph (ENE)    
Max Wind Speed 12 mph    
Max Gust Speed 26 mph    
Visibility 5 miles    
Events Fog , Snow    
Averages and records for this station are not official NWS values.
T = Trace of Precipitation, MM = Missing Value Source: NWS Daily Summary

Daily Weather History Graph

Daily Weather History Graph

Search for Another Location

Airport or City:

Trip Planner

Search our weather history database for the weather conditions in past years. The results will help you decide how hot, cold, wet, or windy it might be!

Date:

Astronomy

Jan. 24, 2013 Rise Set
Actual Time 8:05 AM EST 5:50 PM EST
Civil Twilight 7:35 AM EST 6:20 PM EST
Nautical Twilight 7:01 AM EST 6:54 PM EST
Astronomical Twilight 6:28 AM EST 7:27 PM EST
Moon 3:51 PM EST (1/24) 6:03 AM EST (1/24)
Length of Visible Light 10h 45m
Length of Day
9h 44m
Waxing Gibbous, 94% of the Moon is Illuminated
Jan 24
Waxing Gibbous
Jan 26
Full
Feb 3
Last Quarter
Feb 10
New
Feb 17
First Quarter

Hourly Weather History & Observations

Time (EST) Temp. Windchill Dew Point Humidity Pressure Visibility Wind Dir Wind Speed Gust Speed Precip Events Conditions
12:28 AM 17.6 °F 7.3 °F 8.6 °F 68% 30.20 in 1.8 mi NW 8.1 mph 26.5 mph 0.00 in Snow Light Snow
12:38 AM 17.6 °F 6.4 °F 10.4 °F 73% 30.20 in 0.8 mi NNW 9.2 mph 23.0 mph 0.00 in Snow Light Snow
12:45 AM 17.6 °F 5.0 °F 10.4 °F 73% 30.21 in 1.5 mi NW 11.5 mph 21.9 mph 0.00 in Snow Light Snow
12:53 AM 16.0 °F 2.9 °F 10.9 °F 81% 30.26 in 0.8 mi ENE 11.5 mph 21.9 mph 0.00 in Snow Light Snow
1:06 AM 15.8 °F 3.4 °F 10.4 °F 79% 30.24 in 0.5 mi NE 10.4 mph 20.7 mph 0.00 in Fog , Snow Snow
1:18 AM 14.0 °F 2.0 °F 10.4 °F 86% 30.25 in 0.2 mi NE 9.2 mph 18.4 mph 0.01 in Fog , Snow Heavy Snow
1:53 AM 14.0 °F 2.0 °F 10.9 °F 88% 30.31 in 0.2 mi NE 9.2 mph - 0.06 in Fog , Snow Heavy Snow
2:07 AM 14.0 °F 3.9 °F 10.4 °F 86% 30.27 in 0.8 mi NE 6.9 mph - 0.00 in Snow Light Snow
2:10 AM 14.0 °F 5.1 °F 10.4 °F 86% 30.28 in 1.0 mi NNE 5.8 mph - 0.00 in Snow Light Snow
2:21 AM 15.8 °F 10.2 °F 10.4 °F 79% 30.28 in 1.2 mi Variable 3.5 mph - 0.01 in Snow Light Snow
2:31 AM 15.8 °F 6.1 °F 10.4 °F 79% 30.29 in 1.2 mi NE 6.9 mph - 0.01 in Snow Light Snow
2:37 AM 15.8 °F 6.1 °F 8.6 °F 73% 30.30 in 0.5 mi NNE 6.9 mph - 0.01 in Snow Snow
2:53 AM 15.1 °F 5.2 °F 10.9 °F 84% 30.35 in 0.5 mi NE 6.9 mph - 0.02 in Fog , Snow Snow
3:53 AM 15.1 °F 6.4 °F 10.9 °F 84% 30.38 in 0.2 mi ENE 5.8 mph - 0.08 in Fog , Snow Heavy Snow
4:00 AM 15.8 °F 7.2 °F 10.4 °F 79% 30.34 in 0.2 mi ENE 5.8 mph - 0.01 in Fog , Snow Snow
4:06 AM 15.8 °F 7.2 °F 12.2 °F 86% 30.35 in 0.8 mi ENE 5.8 mph - 0.01 in Snow Light Snow
4:09 AM 15.8 °F 8.6 °F 12.2 °F 86% 30.35 in 1.0 mi ENE 4.6 mph - 0.01 in Snow Light Snow
4:18 AM 15.8 °F 10.2 °F 12.2 °F 86% 30.35 in 2.0 mi ENE 3.5 mph - 0.01 in Snow Light Snow
4:28 AM 15.8 °F 5.1 °F 10.4 °F 79% 30.36 in 2.0 mi East 8.1 mph - 0.01 in Snow Light Snow
4:45 AM 15.8 °F 7.2 °F 12.2 °F 86% 30.37 in 1.2 mi ENE 5.8 mph - 0.02 in Snow Light Snow
4:53 AM 15.1 °F 7.7 °F 12.0 °F 88% 30.41 in 1.0 mi Variable 4.6 mph - 0.02 in Snow Light Snow
4:58 AM 15.8 °F 7.2 °F 12.2 °F 86% 30.37 in 0.5 mi NE 5.8 mph - 0.00 in Fog , Snow Snow
5:07 AM 15.8 °F 6.1 °F 12.2 °F 86% 30.37 in 0.5 mi NE 6.9 mph - 0.01 in Fog , Snow Snow
5:16 AM 15.8 °F 5.1 °F 10.4 °F 79% 30.38 in 1.0 mi NE 8.1 mph - 0.02 in Snow Light Snow
5:21 AM 15.8 °F 6.1 °F 10.4 °F 79% 30.38 in 2.0 mi ENE 6.9 mph - 0.02 in Snow Light Snow
5:25 AM 15.8 °F 7.2 °F 10.4 °F 79% 30.39 in 8.0 mi NE 5.8 mph - 0.02 in   Overcast
5:53 AM 14.0 °F 5.1 °F 7.0 °F 74% 30.45 in 10.0 mi NE 5.8 mph - 0.02 in   Partly Cloudy
6:53 AM 10.9 °F -0.8 °F 6.1 °F 81% 30.51 in 10.0 mi NE 8.1 mph - N/A   Clear
7:53 AM 9.0 °F -2.2 °F 3.0 °F 77% 30.55 in 10.0 mi NE 6.9 mph - N/A   Clear
8:53 AM 9.0 °F -0.9 °F 3.0 °F 77% 30.58 in 10.0 mi ENE 5.8 mph - N/A   Clear
9:53 AM 9.0 °F -0.9 °F 1.9 °F 73% 30.62 in 10.0 mi East 5.8 mph - N/A   Clear
10:53 AM 12.0 °F -0.4 °F 1.9 °F 64% 30.65 in 10.0 mi East 9.2 mph - N/A   Clear
11:53 AM 14.0 °F 5.1 °F -0.0 °F 54% 30.65 in 10.0 mi East 5.8 mph - N/A   Clear
12:53 PM 16.0 °F 4.4 °F -0.0 °F 49% 30.63 in 10.0 mi SE 9.2 mph - N/A   Clear
1:53 PM 17.1 °F 7.6 °F 1.0 °F 50% 30.61 in 10.0 mi East 6.9 mph - N/A   Clear
2:53 PM 17.1 °F 10.0 °F 1.0 °F 50% 30.60 in 10.0 mi SE 4.6 mph - N/A   Clear
3:53 PM 17.1 °F 7.6 °F -0.9 °F 45% 30.60 in 10.0 mi ESE 6.9 mph - N/A   Clear
4:53 PM 17.1 °F 11.7 °F -0.0 °F 47% 30.60 in 10.0 mi SE 3.5 mph - N/A   Clear
5:53 PM 15.1 °F 9.4 °F -0.0 °F 51% 30.58 in 10.0 mi East 3.5 mph - N/A   Clear
6:53 PM 15.1 °F 9.4 °F 1.9 °F 56% 30.57 in 10.0 mi East 3.5 mph - N/A   Clear
7:53 PM 15.1 °F 9.4 °F 3.0 °F 59% 30.55 in 10.0 mi ESE 3.5 mph - N/A   Clear
8:53 PM 15.1 °F 6.4 °F 1.9 °F 56% 30.53 in 10.0 mi SE 5.8 mph - N/A   Clear
9:53 PM 16.0 °F 7.4 °F 1.9 °F 54% 30.51 in 10.0 mi ESE 5.8 mph - N/A   Overcast
10:53 PM 16.0 °F 6.3 °F 1.9 °F 54% 30.49 in 10.0 mi SE 6.9 mph - N/A   Overcast
11:53 PM 16.0 °F 5.3 °F 1.9 °F 54% 30.45 in 10.0 mi ESE 8.1 mph - N/A   Overcast